QPF
0.02 0.02 0.03 0.04 0.05 0.05 0.04 0.03 0.03 0.02 0.03 0.04 0.04 0.03 0.04 0.03 0.03 0.03 0.02 0.02 0.02 0.02 0.02 0.02 0.03 0.04 0.04 0.03 0.04 0.05 0.04 0.04 0.04 0.03 0.03 0.02 0.02 0.02 0.02 0.02 0.02 0.02 0.03
0.03 0.03 0.03 0.05 0.05 0.07 0.06 0.05 0.05 0.05 0.04 0.03 0.03 0.02 0.03 0.02 0.02 0.02 0.02 0.01 0.01 0.01 0.02 0.03 0.04 0.04 0.03 0.03 0.04 0.06 0.06 0.06 0.05 0.04 0.04 0.03 0.03 0.03 0.02 0.02 0.03 0.03 0.03
0.06 0.06 0.07 0.08 0.08 0.07 0.06 0.05 0.04 0.03 0.03 0.03 0.02 0.02 0.02 0.02 0.02 0.02 0.02 0.01 0.01 0.01 0.03 0.04 0.04 0.04 0.03 0.02 0.02 0.02 0.02 0.02 0.02 0.02 0.02 0.02 0.03 0.02 0.02 0.01 0.02 0.03 0.03
0.04 0.05 0.06 0.06 0.06 0.05 0.04 0.04 0.03 0.03 0.02 0.02 0.02 0.01 0.01 0.01 0.01 0.02 0.01 0.01 0.02 0.02 0.03 0.03 0.02 0.01 0.01 0.01 0.01 0.01 0.01 0.01 0.01 0.01 0.01 0.01 0.02 0.02 0.02 0.01 0.01 0.02 0.02
0.03 0.04 0.03 0.04 0.05 0.04 0.03 0.03 0.03 0.02 0.02 0.01 0.01 0.01 0.01 0.01 0.01 0.01 0.01 0.01 0.02 0.01 0.00 0.01 0.01 0.00 0.01 0.01 0.01 0.01 0.01 0.01 0.01 0.01 0.01 0.01 0.02 0.02 0.01 0.01 0.01 0.02 0.02
0.03 0.03 0.02 0.03 0.04 0.02 0.01 0.01 0.01 0.01 0.01 0.01 0.01 0.01 0.01 0.01 0.01 0.00 0.00 0.01 0.01 0.00 0.00 0.00 0.01 0.01 0.01 0.01 0.01 0.01 0.01 0.01 0.01 0.01 0.01 0.01 0.01 0.01 0.02 0.02 0.02 0.02 0.02
0.03 0.02 0.01 0.02 0.02 0.01 0.01 0.00 0.01 0.01 0.01 0.01 0.01 0.01 0.01 0.00 0.00 0.00 0.00 0.00 0.00 0.00 0.00 0.00 0.00 0.01 0.01 0.00 0.00 0.00 0.00 0.00 0.01 0.00 0.01 0.01 0.01 0.01 0.01 0.02 0.02 0.02 0.03
0.06 0.03 0.02 0.01 0.01 0.01 0.00 0.00 0.00 0.01 0.01 0.01 0.01 0.01 0.00 0.00 0.00 0.00 0.00 0.00 0.00 0.00 0.00 0.00 0.00 0.01 0.01 0.01 0.01 0.00 0.00 0.00 0.00 0.00 0.00 0.01 0.01 0.01 0.02 0.03 0.04 0.04 0.03
0.05 0.03 0.02 0.01 0.01 0.01 0.01 0.01 0.01 0.01 0.01 0.01 0.01 0.00 0.00 0.00 0.00 0.00 0.00 0.01 0.01 0.01 0.01 0.01 0.01 0.01 0.01 0.02 0.01 0.01 0.00 0.00 0.01 0.00 0.00 0.01 0.02 0.02 0.02 0.03 0.03 0.04 0.04
0.03 0.02 0.01 0.01 0.01 0.01 0.01 0.00 0.01 0.01 0.00 0.01 0.00 0.00 0.00 0.00 0.01 0.02 0.02 0.01 0.01 0.01 0.01 0.01 0.01 0.00 0.01 0.02 0.01 0.01 0.01 0.00 0.00 0.01 0.01 0.01 0.01 0.02 0.03 0.03 0.03 0.04 0.04
0.01 0.01 0.01 0.01 0.01 0.01 0.01 0.01 0.00 0.01 0.00 0.00 0.00 0.00 0.00 0.00 0.01 0.01 0.01 0.01 0.01 0.01 0.01 0.01 0.01 0.01 0.01 0.01 0.02 0.01 0.01 0.02 0.01 0.01 0.01 0.01 0.01 0.02 0.03 0.03 0.02 0.03 0.03
0.01 0.01 0.01 0.01 0.01 0.01 0.00 0.01 0.01 0.00 0.00 0.00 0.00 0.00 0.00 0.00 0.00 0.00 0.01 0.01 0.01 0.01 0.00 0.01 0.01 0.01 0.01 0.01 0.01 0.01 0.01 0.02 0.03 0.02 0.01 0.01 0.01 0.02 0.03 0.04 0.03 0.02 0.02
0.01 0.01 0.01 0.01 0.01 0.00 0.01 0.01 0.01 0.00 0.00 0.00 0.00 0.00 0.01 0.01 0.00 0.00 0.00 0.01 0.01 0.01 0.00 0.01 0.01 0.00 0.00 0.01 0.01 0.01 0.01 0.03 0.04 0.03 0.02 0.02 0.03 0.03 0.04 0.04 0.04 0.03 0.02
0.01 0.01 0.01 0.01 0.01 0.02 0.02 0.01 0.00 0.00 0.00 0.00 0.01 0.01 0.01 0.01 0.00 0.00 0.00 0.01 0.01 0.01 0.01 0.01 0.01 0.01 0.01 0.02 0.03 0.02 0.02 0.03 0.03 0.03 0.03 0.03 0.03 0.03 0.04 0.05 0.05 0.03 0.02
0.01 0.01 0.01 0.02 0.02 0.02 0.01 0.00 0.00 0.01 0.00 0.01 0.01 0.01 0.01 0.01 0.01 0.01 0.01 0.02 0.02 0.01 0.01 0.01 0.01 0.01 0.01 0.02 0.03 0.04 0.03 0.03 0.02 0.02 0.03 0.05 0.05 0.04 0.04 0.05 0.05 0.03 0.02
0.02 0.01 0.01 0.01 0.02 0.02 0.01 0.00 0.00 0.00 0.01 0.01 0.01 0.01 0.01 0.01 0.01 0.01 0.01 0.01 0.01 0.01 0.00 0.00 0.00 0.00 0.01 0.02 0.04 0.05 0.04 0.03 0.02 0.02 0.03 0.04 0.05 0.05 0.05 0.05 0.05 0.03 0.02
0.02 0.01 0.02 0.02 0.02 0.02 0.01 0.01 0.00 0.00 0.01 0.01 0.01 0.01 0.01 0.01 0.01 0.01 0.01 0.01 0.00 0.00 0.00 0.00 0.00 0.00 0.00 0.00 0.01 0.02 0.02 0.02 0.01 0.02 0.02 0.03 0.03 0.02 0.02 0.03 0.03 0.03 0.02
0.01 0.02 0.02 0.02 0.01 0.02 0.01 0.00 0.00 0.00 0.00 0.01 0.01 0.01 0.01 0.01 0.00 0.00 0.00 0.00 0.00 0.00 0.00 0.00 0.00 0.00 0.00 0.00 0.00 0.01 0.02 0.02 0.02 0.02 0.02 0.02 0.02 0.02 0.01 0.01 0.01 0.01 0.01
0.01 0.01 0.01 0.01 0.01 0.02 0.01 0.01 0.01 0.01 0.01 0.01 0.01 0.01 0.00 0.00 0.00 0.00 0.00 0.00 0.00 0.00 0.00 0.00 0.00 0.00 0.00 0.00 0.01 0.01 0.01 0.01 0.02 0.02 0.02 0.02 0.02 0.02 0.01 0.01 0.01 0.01 0.01
0.01 0.02 0.02 0.01 0.01 0.02 0.01 0.01 0.00 0.00 0.00 0.01 0.01 0.01 0.00 0.00 0.00 0.00 0.00 0.00 0.01 0.01 0.01 0.01 0.01 0.01 0.01 0.01 0.01 0.01 0.01 0.01 0.01 0.01 0.01 0.01 0.02 0.02 0.01 0.01 0.00 0.00 0.00
0.01 0.01 0.02 0.02 0.01 0.01 0.01 0.00 0.00 0.00 0.00 0.00 0.00 0.00 0.00 0.00 0.00 0.00 0.00 0.00 0.00 0.01 0.01 0.01 0.01 0.01 0.01 0.02 0.02 0.01 0.01 0.01 0.01 0.01 0.01 0.01 0.01 0.01 0.01 0.01 0.00 0.00 0.01
0.02 0.02 0.02 0.02 0.01 0.01 0.01 0.00 0.00 0.00 0.00 0.00 0.00 0.00 0.00 0.00 0.00 0.00 0.00 0.00 0.00 0.01 0.01 0.01 0.01 0.02 0.02 0.03 0.02 0.01 0.01 0.01 0.01 0.01 0.00 0.01 0.01 0.01 0.01 0.01 0.01 0.01 0.01
0.02 0.02 0.02 0.02 0.02 0.01 0.01 0.01 0.00 0.00 0.00 0.00 0.00 0.00 0.01 0.00 0.00 0.00 0.00 0.00 0.00 0.00 0.00 0.01 0.01 0.02 0.03 0.03 0.03 0.02 0.01 0.01 0.01 0.01 0.01 0.01 0.01 0.01 0.01 0.01 0.01 0.01 0.01
0.01 0.01 0.02 0.02 0.02 0.01 0.01 0.01 0.01 0.01 0.00 0.00 0.00 0.00 0.01 0.01 0.00 0.00 0.00 0.00 0.00 0.00 0.00 0.01 0.01 0.02 0.02 0.02 0.02 0.03 0.01 0.01 0.01 0.01 0.01 0.01 0.01 0.01 0.01 0.01 0.01 0.01 0.01
0.01 0.01 0.01 0.02 0.02 0.02 0.01 0.01 0.01 0.01 0.01 0.01 0.01 0.01 0.01 0.00 0.00 0.00 0.00 0.00 0.00 0.00 0.00 0.01 0.01 0.02 0.02 0.02 0.01 0.01 0.01 0.01 0.01 0.01 0.01 0.01 0.01 0.01 0.01 0.01 0.01 0.01 0.01
0.02 0.02 0.02 0.03 0.03 0.03 0.03 0.03 0.02 0.02 0.02 0.01 0.01 0.01 0.00 0.00 0.00 0.00 0.00 0.00 0.00 0.01 0.01 0.02 0.02 0.02 0.02 0.02 0.02 0.01 0.01 0.01 0.01 0.01 0.01 0.01 0.01 0.01 0.01 0.01 0.01 0.01 0.02
MSLP
1016.92 1017.46 1018.01 1018.52 1018.97 1019.34 1019.63 1019.84 1020.01 1020.14 1020.24 1020.33 1020.41 1020.46 1020.49 1020.50 1020.49 1020.48 1020.47 1020.49 1020.55 1020.64 1020.76 1020.88 1020.99 1021.06 1021.06 1020.99 1020.83 1020.61 1020.32 1019.99 1019.62 1019.24 1018.85 1018.44 1018.02 1017.58 1017.12 1016.65 1016.17 1015.69 1015.23
1017.73 1018.22 1018.72 1019.18 1019.59 1019.93 1020.21 1020.43 1020.60 1020.73 1020.83 1020.91 1020.95 1020.97 1020.95 1020.91 1020.85 1020.78 1020.73 1020.71 1020.72 1020.77 1020.84 1020.92 1020.98 1021.01 1020.98 1020.88 1020.71 1020.49 1020.21 1019.89 1019.54 1019.18 1018.80 1018.39 1017.96 1017.51 1017.02 1016.52 1016.01 1015.50 1015.01
1018.42 1018.89 1019.35 1019.78 1020.16 1020.48 1020.75 1020.96 1021.14 1021.27 1021.37 1021.43 1021.45 1021.43 1021.38 1021.29 1021.18 1021.07 1020.98 1020.91 1020.87 1020.87 1020.89 1020.91 1020.93 1020.91 1020.84 1020.72 1020.54 1020.30 1020.03 1019.72 1019.39 1019.04 1018.66 1018.26 1017.82 1017.35 1016.85 1016.32 1015.77 1015.24 1014.72
1018.96 1019.45 1019.90 1020.31 1020.67 1020.97 1021.23 1021.44 1021.60 1021.73 1021.83 1021.88 1021.89 1021.85 1021.77 1021.66 1021.52 1021.37 1021.24 1021.13 1021.04 1020.99 1020.96 1020.93 1020.89 1020.82 1020.72 1020.56 1020.36 1020.11 1019.83 1019.52 1019.20 1018.84 1018.47 1018.06 1017.61 1017.12 1016.60 1016.05 1015.49 1014.94 1014.40
1019.38 1019.89 1020.34 1020.74 1021.09 1021.37 1021.61 1021.81 1021.97 1022.10 1022.19 1022.24 1022.25 1022.21 1022.12 1022.00 1021.85 1021.68 1021.52 1021.38 1021.26 1021.16 1021.08 1021.00 1020.90 1020.78 1020.63 1020.43 1020.20 1019.93 1019.63 1019.30 1018.96 1018.60 1018.21 1017.79 1017.33 1016.84 1016.31 1015.75 1015.18 1014.62 1014.08
1019.68 1020.21 1020.68 1021.07 1021.39 1021.66 1021.88 1022.06 1022.21 1022.33 1022.42 1022.48 1022.50 1022.47 1022.39 1022.28 1022.13 1021.97 1021.81 1021.65 1021.50 1021.37 1021.24 1021.11 1020.96 1020.79 1020.58 1020.34 1020.06 1019.75 1019.41 1019.06 1018.70 1018.31 1017.90 1017.47 1017.01 1016.51 1015.98 1015.43 1014.87 1014.32 1013.78
1019.88 1020.43 1020.89 1021.27 1021.58 1021.82 1022.01 1022.17 1022.30 1022.42 1022.51 1022.58 1022.62 1022.61 1022.57 1022.48 1022.36 1022.21 1022.06 1021.89 1021.73 1021.57 1021.41 1021.24 1021.04 1020.82 1020.56 1020.26 1019.93 1019.57 1019.19 1018.80 1018.40 1017.99 1017.56 1017.12 1016.65 1016.16 1015.64 1015.11 1014.57 1014.04 1013.53
1020.00 1020.55 1021.00 1021.36 1021.63 1021.84 1022.01 1022.15 1022.27 1022.38 1022.48 1022.56 1022.62 1022.65 1022.63 1022.58 1022.49 1022.37 1022.23 1022.08 1021.92 1021.75 1021.56 1021.35 1021.11 1020.84 1020.53 1020.18 1019.80 1019.40 1018.97 1018.54 1018.11 1017.67 1017.22 1016.76 1016.30 1015.81 1015.32 1014.82 1014.31 1013.82 1013.34
1020.06 1020.59 1021.02 1021.35 1021.59 1021.77 1021.91 1022.03 1022.14 1022.25 1022.36 1022.46 1022.54 1022.60 1022.62 1022.60 1022.54 1022.45 1022.33 1022.19 1022.03 1021.85 1021.65 1021.42 1021.15 1020.85 1020.50 1020.11 1019.69 1019.24 1018.78 1018.31 1017.84 1017.38 1016.92 1016.45 1015.99 1015.52 1015.05 1014.58 1014.12 1013.66 1013.22
1020.06 1020.56 1020.96 1021.26 1021.47 1021.63 1021.76 1021.87 1021.97 1022.09 1022.21 1022.33 1022.43 1022.51 1022.56 1022.56 1022.53 1022.47 1022.37 1022.24 1022.09 1021.91 1021.70 1021.46 1021.17 1020.85 1020.48 1020.06 1019.61 1019.14 1018.65 1018.16 1017.67 1017.18 1016.71 1016.24 1015.78 1015.32 1014.87 1014.43 1013.99 1013.57 1013.17
1020.01 1020.47 1020.84 1021.11 1021.31 1021.46 1021.58 1021.70 1021.81 1021.94 1022.07 1022.21 1022.33 1022.42 1022.49 1022.51 1022.50 1022.45 1022.36 1022.24 1022.10 1021.92 1021.72 1021.48 1021.19 1020.86 1020.49 1020.07 1019.61 1019.13 1018.63 1018.12 1017.62 1017.12 1016.63 1016.15 1015.69 1015.24 1014.80 1014.37 1013.95 1013.55 1013.17
1019.90 1020.33 1020.67 1020.93 1021.13 1021.29 1021.42 1021.55 1021.69 1021.83 1021.98 1022.13 1022.26 1022.37 1022.44 1022.47 1022.46 1022.41 1022.33 1022.23 1022.09 1021.93 1021.73 1021.51 1021.24 1020.92 1020.57 1020.16 1019.71 1019.24 1018.74 1018.23 1017.72 1017.21 1016.71 1016.22 1015.75 1015.28 1014.84 1014.40 1013.99 1013.59 1013.21
1019.72 1020.13 1020.46 1020.72 1020.93 1021.11 1021.27 1021.43 1021.60 1021.76 1021.93 1022.09 1022.22 1022.33 1022.40 1022.43 1022.42 1022.38 1022.31 1022.21 1022.09 1021.94 1021.77 1021.57 1021.33 1021.04 1020.72 1020.34 1019.92 1019.46 1018.98 1018.48 1017.97 1017.45 1016.94 1016.43 1015.94 1015.45 1014.98 1014.52 1014.09 1013.68 1013.29
1019.48 1019.88 1020.21 1020.49 1020.73 1020.94 1021.13 1021.32 1021.51 1021.70 1021.88 1022.05 1022.18 1022.29 1022.35 1022.38 1022.37 1022.33 1022.27 1022.18 1022.08 1021.96 1021.82 1021.66 1021.46 1021.22 1020.93 1020.59 1020.21 1019.79 1019.33 1018.84 1018.34 1017.82 1017.29 1016.76 1016.23 1015.71 1015.20 1014.71 1014.25 1013.80 1013.39
1019.19 1019.60 1019.94 1020.24 1020.51 1020.75 1020.98 1021.20 1021.41 1021.61 1021.79 1021.96 1022.09 1022.19 1022.25 1022.28 1022.27 1022.25 1022.20 1022.14 1022.07 1021.98 1021.88 1021.76 1021.61 1021.42 1021.18 1020.89 1020.55 1020.16 1019.73 1019.26 1018.77 1018.24 1017.70 1017.15 1016.59 1016.03 1015.48 1014.95 1014.44 1013.96 1013.52
1018.89 1019.30 1019.66 1019.99 1020.27 1020.54 1020.78 1021.02 1021.23 1021.44 1021.62 1021.78 1021.91 1022.00 1022.07 1022.10 1022.11 1022.10 1022.08 1022.05 1022.02 1021.98 1021.93 1021.86 1021.75 1021.61 1021.42 1021.18 1020.88 1020.53 1020.13 1019.68 1019.19 1018.67 1018.12 1017.55 1016.96 1016.37 1015.78 1015.21 1014.67 1014.16 1013.68
1018.58 1019.00 1019.38 1019.72 1020.02 1020.29 1020.54 1020.77 1020.98 1021.17 1021.35 1021.49 1021.61 1021.71 1021.78 1021.83 1021.86 1021.89 1021.91 1021.93 1021.94 1021.95 1021.95 1021.92 1021.87 1021.77 1021.62 1021.42 1021.16 1020.84 1020.47 1020.04 1019.57 1019.05 1018.50 1017.92 1017.32 1016.71 1016.10 1015.51 1014.94 1014.40 1013.91
1018.29 1018.72 1019.10 1019.44 1019.74 1020.00 1020.24 1020.45 1020.64 1020.82 1020.97 1021.11 1021.23 1021.33 1021.41 1021.49 1021.56 1021.63 1021.70 1021.77 1021.84 1021.89 1021.94 1021.95 1021.93 1021.87 1021.76 1021.58 1021.35 1021.07 1020.72 1020.32 1019.87 1019.37 1018.83 1018.26 1017.66 1017.05 1016.44 1015.84 1015.26 1014.72 1014.22
1018.00 1018.43 1018.81 1019.14 1019.43 1019.67 1019.89 1020.07 1020.24 1020.39 1020.53 1020.66 1020.78 1020.90 1021.01 1021.12 1021.24 1021.36 1021.48 1021.60 1021.72 1021.82 1021.90 1021.95 1021.96 1021.92 1021.83 1021.68 1021.47 1021.21 1020.89 1020.51 1020.09 1019.62 1019.10 1018.56 1017.98 1017.40 1016.80 1016.22 1015.65 1015.12 1014.64
1017.71 1018.13 1018.50 1018.82 1019.08 1019.30 1019.49 1019.65 1019.80 1019.93 1020.06 1020.19 1020.33 1020.47 1020.62 1020.78 1020.94 1021.11 1021.28 1021.45 1021.61 1021.74 1021.85 1021.93 1021.95 1021.93 1021.85 1021.72 1021.53 1021.28 1020.99 1020.64 1020.25 1019.81 1019.34 1018.83 1018.30 1017.75 1017.20 1016.65 1016.12 1015.61 1015.14
1017.38 1017.79 1018.14 1018.44 1018.68 1018.88 1019.05 1019.19 1019.33 1019.46 1019.60 1019.75 1019.91 1020.08 1020.28 1020.48 1020.69 1020.91 1021.12 1021.33 1021.52 1021.68 1021.80 1021.89 1021.93 1021.91 1021.84 1021.72 1021.54 1021.32 1021.04 1020.73 1020.38 1019.99 1019.56 1019.11 1018.63 1018.14 1017.63 1017.13 1016.64 1016.17 1015.74
1016.99 1017.38 1017.71 1017.99 1018.21 1018.40 1018.56 1018.70 1018.85 1018.99 1019.15 1019.33 1019.53 1019.75 1019.98 1020.23 1020.49 1020.74 1020.99 1021.22 1021.43 1021.61 1021.74 1021.83 1021.87 1021.86 1021.80 1021.69 1021.53 1021.32 1021.08 1020.80 1020.49 1020.15 1019.78 1019.38 1018.97 1018.53 1018.09 1017.65 1017.21 1016.78 1016.38
1016.52 1016.88 1017.19 1017.45 1017.66 1017.85 1018.01 1018.18 1018.34 1018.52 1018.72 1018.94 1019.19 1019.45 1019.72 1020.01 1020.29 1020.58 1020.84 1021.09 1021.31 1021.49 1021.63 1021.73 1021.78 1021.77 1021.72 1021.63 1021.49 1021.31 1021.10 1020.86 1020.60 1020.30 1019.99 1019.65 1019.30 1018.93 1018.55 1018.16 1017.77 1017.40 1017.03
1015.98 1016.31 1016.59 1016.83 1017.04 1017.23 1017.41 1017.60 1017.81 1018.03 1018.27 1018.54 1018.82 1019.12 1019.43 1019.75 1020.05 1020.35 1020.63 1020.88 1021.10 1021.29 1021.44 1021.54 1021.60 1021.62 1021.59 1021.52 1021.42 1021.27 1021.10 1020.91 1020.68 1020.44 1020.17 1019.89 1019.59 1019.28 1018.96 1018.63 1018.29 1017.96 1017.63
1015.40 1015.68 1015.93 1016.15 1016.36 1016.56 1016.76 1016.99 1017.23 1017.49 1017.78 1018.08 1018.40 1018.73 1019.06 1019.39 1019.71 1020.01 1020.29 1020.54 1020.77 1020.96 1021.12 1021.24 1021.33 1021.37 1021.38 1021.35 1021.28 1021.19 1021.06 1020.90 1020.73 1020.53 1020.30 1020.07 1019.82 1019.55 1019.28 1019.00 1018.72 1018.43 1018.15
1014.81 1015.05 1015.26 1015.46 1015.65 1015.86 1016.08 1016.33 1016.60 1016.90 1017.22 1017.55 1017.89 1018.23 1018.57 1018.90 1019.21 1019.51 1019.78 1020.04 1020.27 1020.48 1020.66 1020.81 1020.93 1021.02 1021.08 1021.10 1021.08 1021.03 1020.95 1020.84 1020.70 1020.54 1020.35 1020.16 1019.94 1019.72 1019.49 1019.26 1019.02 1018.78 1018.54
Thickness
5677 5675 5674 5672 5671 5670 5668 5666 5664 5664 5664 5662 5662 5661 5659 5658 5656 5654 5652 5649 5647 5645 5643 5640 5637 5634 5631 5627 5625 5622 5619 5616 5614 5614 5612 5611 5611 5610 5609 5608 5608 5607 5607
5675 5672 5671 5669 5667 5665 5664 5663 5662 5661 5660 5660 5659 5658 5656 5654 5653 5651 5648 5646 5643 5641 5639 5636 5633 5630 5627 5623 5620 5617 5614 5612 5610 5609 5608 5606 5605 5604 5602 5601 5601 5601 5600
5672 5670 5668 5666 5664 5662 5661 5660 5659 5657 5657 5656 5655 5653 5652 5651 5649 5647 5644 5642 5640 5637 5635 5632 5629 5626 5623 5620 5616 5613 5610 5608 5605 5603 5602 5600 5599 5597 5595 5595 5594 5593 5594
5669 5667 5665 5663 5662 5660 5658 5657 5655 5654 5653 5652 5650 5649 5648 5646 5645 5643 5640 5638 5635 5633 5631 5628 5625 5622 5620 5616 5613 5609 5606 5603 5601 5599 5597 5595 5593 5591 5589 5588 5588 5587 5586
5666 5664 5662 5661 5659 5656 5654 5652 5651 5650 5649 5648 5646 5645 5643 5642 5641 5639 5636 5634 5631 5629 5627 5624 5622 5620 5617 5613 5610 5607 5603 5600 5597 5595 5593 5591 5589 5586 5584 5582 5581 5580 5580
5663 5661 5659 5657 5655 5652 5650 5649 5647 5646 5645 5643 5642 5640 5639 5639 5637 5635 5632 5629 5627 5624 5622 5621 5619 5616 5614 5610 5607 5604 5601 5597 5595 5591 5589 5587 5585 5582 5579 5577 5574 5573 5574
5660 5658 5656 5654 5651 5649 5648 5645 5643 5641 5639 5638 5637 5636 5635 5634 5633 5631 5628 5625 5623 5620 5619 5617 5616 5613 5610 5607 5604 5601 5598 5595 5593 5589 5586 5584 5582 5580 5575 5573 5570 5568 5568
5656 5655 5653 5651 5649 5646 5644 5642 5639 5637 5635 5634 5632 5631 5630 5630 5628 5626 5623 5620 5618 5617 5615 5613 5611 5608 5606 5603 5600 5597 5594 5592 5589 5587 5585 5582 5580 5576 5572 5569 5566 5564 5563
5653 5651 5650 5648 5646 5643 5641 5639 5637 5634 5632 5630 5628 5627 5625 5624 5623 5621 5618 5615 5613 5612 5611 5609 5607 5604 5602 5598 5596 5593 5591 5589 5587 5585 5582 5580 5577 5574 5570 5566 5563 5561 5562
5650 5649 5648 5645 5643 5640 5637 5635 5633 5631 5629 5627 5625 5623 5622 5620 5619 5617 5614 5611 5609 5608 5606 5605 5602 5600 5597 5594 5591 5588 5586 5585 5583 5582 5579 5577 5574 5571 5568 5565 5562 5559 5558
5648 5646 5644 5642 5639 5637 5634 5632 5630 5628 5626 5624 5622 5620 5618 5617 5615 5613 5610 5608 5606 5604 5602 5600 5599 5596 5593 5590 5587 5585 5583 5581 5578 5576 5575 5573 5571 5569 5566 5563 5559 5557 5555
5644 5642 5640 5639 5637 5635 5632 5629 5627 5624 5622 5619 5617 5616 5615 5614 5612 5610 5608 5605 5603 5600 5599 5597 5595 5592 5589 5587 5584 5581 5578 5576 5574 5572 5571 5569 5568 5566 5564 5561 5557 5554 5552
5638 5637 5635 5634 5633 5631 5628 5625 5623 5621 5619 5616 5614 5613 5612 5611 5610 5608 5605 5603 5600 5597 5595 5593 5591 5588 5586 5584 5581 5578 5575 5572 5570 5568 5568 5567 5565 5562 5560 5557 5555 5552 5549
5633 5632 5630 5629 5628 5627 5624 5622 5620 5618 5616 5615 5613 5611 5610 5608 5607 5605 5603 5600 5597 5593 5591 5589 5587 5585 5583 5581 5578 5576 5572 5570 5567 5565 5564 5563 5560 5558 5556 5553 5551 5548 5546
5629 5627 5626 5625 5624 5622 5621 5619 5618 5617 5616 5613 5612 5610 5607 5606 5606 5603 5599 5597 5594 5591 5588 5585 5584 5582 5580 5578 5575 5573 5570 5567 5564 5561 5559 5558 5556 5555 5553 5549 5546 5543 5540
5625 5623 5622 5620 5619 5618 5616 5615 5615 5614 5613 5611 5609 5607 5606 5604 5602 5599 5596 5593 5590 5587 5584 5583 5581 5579 5577 5575 5572 5570 5567 5565 5562 5559 5556 5554 5552 5551 5549 5545 5542 5539 5537
5622 5620 5618 5616 5615 5613 5612 5611 5610 5610 5609 5608 5606 5604 5602 5601 5598 5596 5593 5590 5587 5584 5581 5581 5579 5577 5574 5572 5569 5567 5565 5563 5559 5556 5554 5552 5549 5547 5544 5541 5538 5535 5533
5619 5617 5615 5613 5612 5611 5609 5608 5607 5606 5605 5604 5602 5600 5598 5597 5595 5593 5590 5587 5584 5581 5580 5578 5577 5575 5572 5570 5568 5565 5563 5561 5558 5555 5552 5549 5546 5544 5541 5538 5535 5532 5529
5616 5614 5612 5610 5609 5608 5607 5605 5604 5602 5601 5600 5598 5597 5595 5593 5592 5589 5587 5585 5584 5581 5579 5576 5575 5573 5571 5568 5566 5563 5561 5558 5556 5553 5550 5547 5545 5541 5539 5536 5533 5528 5525
5612 5611 5609 5607 5606 5604 5603 5602 5601 5600 5598 5597 5596 5595 5593 5590 5589 5587 5584 5582 5581 5579 5577 5575 5573 5571 5568 5566 5564 5561 5559 5556 5554 5551 5548 5545 5543 5540 5536 5533 5530 5527 5524
5608 5607 5605 5604 5603 5602 5601 5599 5598 5597 5596 5595 5594 5593 5590 5589 5588 5586 5584 5581 5579 5578 5576 5573 5571 5569 5567 5564 5562 5560 5558 5555 5552 5549 5546 5544 5541 5538 5534 5531 5528 5525 5522
5604 5603 5602 5601 5600 5599 5598 5597 5596 5595 5595 5593 5592 5590 5587 5586 5585 5584 5583 5581 5579 5576 5574 5572 5570 5567 5565 5563 5560 5558 5556 5554 5551 5548 5545 5542 5539 5536 5533 5530 5527 5523 5520
5601 5600 5598 5597 5597 5596 5595 5595 5594 5593 5592 5591 5589 5587 5585 5584 5583 5581 5580 5579 5577 5574 5572 5570 5568 5566 5564 5561 5559 5557 5555 5552 5549 5546 5543 5540 5537 5534 5530 5527 5524 5521 5518
5597 5596 5595 5594 5594 5593 5592 5591 5591 5590 5589 5588 5586 5585 5584 5582 5581 5579 5577 5575 5574 5572 5570 5568 5566 5565 5563 5560 5558 5556 5554 5551 5548 5544 5541 5538 5535 5532 5528 5525 5522 5519 5516
5592 5592 5592 5592 5591 5590 5589 5588 5587 5586 5585 5584 5583 5582 5580 5578 5577 5576 5574 5572 5571 5569 5568 5566 5564 5563 5561 5559 5557 5554 5552 5550 5547 5543 5540 5537 5533 5530 5527 5524 5520 5517 5514
5588 5588 5588 5588 5587 5586 5585 5584 5583 5582 5581 5580 5579 5578 5576 5574 5573 5572 5570 5569 5568 5566 5565 5563 5561 5560 5559 5557 5555 5553 5551 5548 5545 5542 5539 5536 5532 5529 5525 5522 5518 5515 5512